This is the latest recevied weather packets stored in our database for station/object N9CQL. If no packets are shown the sender has not sent any weather packets the latest 10 day(s).
| Time | Temp. | Humidity | Pressure | Rain* | Wind** | Luminosity | Snow |
|---|---|---|---|---|---|---|---|
| 1777858029 | 16.67° C | 59% | 1004.6 hPa | 0 mm | - | 0 W/m² | - |
| 1777857727 | 16.67° C | 59% | 1004.5 hPa | 0 mm | - | 0 W/m² | - |
| 1777857424 | 16.67° C | 58% | 1004.8 hPa | 0 mm | - | 0 W/m² | - |
| 1777857120 | 17.22° C | 58% | 1004.5 hPa | 0 mm | - | 0 W/m² | - |
| 1777856816 | 17.22° C | 57% | 1004.4 hPa | 0 mm | - | 0 W/m² | - |
| 1777856512 | 17.22° C | 56% | 1004.4 hPa | 0 mm | - | 0 W/m² | - |
| 1777856209 | 17.78° C | 55% | 1004.6 hPa | 0 mm | - | 0 W/m² | - |
| 1777855906 | 17.78° C | 54% | 1004.8 hPa | 0 mm | - | 0 W/m² | - |
| 1777855604 | 17.78° C | 55% | 1004.3 hPa | 0 mm | - | 2 W/m² | - |
| 1777855300 | 17.78° C | 55% | 1004.7 hPa | 0 mm | - | 5 W/m² | - |
| 1777854997 | 18.33° C | 53% | 1004.5 hPa | 0 mm | - | 6 W/m² | - |
| 1777854694 | 18.33° C | 53% | 1004.7 hPa | 0 mm | - | 10 W/m² | - |
| 1777854390 | 18.33° C | 52% | 1004.6 hPa | 0 mm | - | 12 W/m² | - |
| 1777854088 | 18.89° C | 51% | 1004.7 hPa | 0 mm | - | 14 W/m² | - |
| 1777853786 | 18.89° C | 51% | 1004.7 hPa | 0 mm | - | 17 W/m² | - |
| 1777853481 | 18.89° C | 50% | 1004.7 hPa | 0 mm | - | 20 W/m² | - |
| 1777853179 | 19.44° C | 50% | 1004.6 hPa | 0 mm | - | 24 W/m² | - |
| 1777852876 | 19.44° C | 49% | 1004.7 hPa | 0 mm | - | 27 W/m² | - |
| 1777852574 | 19.44° C | 48% | 1004.6 hPa | 0 mm | - | 29 W/m² | - |
| 1777852271 | 19.44° C | 48% | 1004.7 hPa | 0 mm | - | 35 W/m² | - |
| 1777851969 | 20° C | 48% | 1004.5 hPa | 0 mm | - | 47 W/m² | - |
| 1777851667 | 20° C | 47% | 1004.6 hPa | 0 mm | - | 51 W/m² | - |
| 1777851363 | 20° C | 46% | 1004.5 hPa | 0 mm | - | 66 W/m² | - |
| 1777851059 | 20° C | 46% | 1004.6 hPa | 0 mm | - | 85 W/m² | - |
| 1777850756 | 20.56° C | 46% | 1004.8 hPa | 0 mm | - | 95 W/m² | - |
* Rain latest hour (hover to see other rain measurements)
** Current wind speed in m/s (hover to see current wind gust speed)